EW6055 Weather Reports


Display with metric or nautical units.
time (UTC)temp
F
wind
direction
speed
MPH
gust
MPH
rain 1hr
in
rain 24hr
in
rain mn
in
humidity
%
barometer
mb
20260503002002 73 335 1.0 6.0 0.00 0.03 0.03 55 1009.5
20260503001502 73 329 1.0 6.0 0.00 0.03 0.03 53 1009.6
20260503001003 73 324 1.0 5.0 0.00 0.03 0.03 53 1009.5
20260503000502 73 296 0.0 3.0 0.00 0.03 0.03 54 1009.5
20260503000002 73 329 0.0 6.0 0.00 0.03 0.03 54 1009.7
20260502235502 73 335 0.0 6.0 0.00 0.03 0.03 53 1009.7
20260502235002 73 349 1.0 5.0 0.00 0.03 0.03 53 1009.7
20260502234523 73 355 1.0 5.0 0.00 0.03 0.03 52 1009.8
20260502234023 73 337 1.0 4.0 0.00 0.03 0.03 52 1009.8
20260502233502 74 308 0.0 4.0 0.00 0.03 0.03 52 1009.9
20260502233003 74 359 0.0 3.0 0.00 0.03 0.03 52 1010.0
20260502232502 73 34 1.0 4.0 0.00 0.03 0.03 53 1010.2
20260502232002 73 6 1.0 5.0 0.00 0.03 0.03 54 1010.2
20260502231503 73 342 1.0 5.0 0.00 0.03 0.03 53 1010.3
20260502231002 73 334 2.0 4.0 0.00 0.03 0.03 53 1010.3
20260502230502 73 322 1.0 5.0 0.00 0.03 0.03 53 1010.4
20260502230003 72 346 1.0 5.0 0.00 0.03 0.03 56 1010.4
20260502225502 72 342 1.0 7.0 0.00 0.03 0.03 55 1010.4
20260502225002 71 301 1.0 7.0 0.00 0.03 0.03 55 1010.4
20260502224502 71 294 1.0 4.0 0.00 0.03 0.03 56 1010.4
20260502224002 71 286 1.0 3.0 0.00 0.03 0.03 57 1010.6
20260502223502 70 288 1.0 3.0 0.00 0.03 0.03 58 1010.7
20260502223002 70 342 1.0 3.0 0.00 0.03 0.03 58 1010.8
20260502222502 70 42 0.0 2.0 0.00 0.03 0.03 58 1010.8
20260502222002 70 0 0.0 0.0 0.00 0.03 0.03 57 1011.0
20260502221502 70 334 0.0 3.0 0.00 0.03 0.03 57 1011.0
20260502221002 70 331 1.0 3.0 0.00 0.03 0.03 56 1011.1
20260502220524 70 339 1.0 6.0 0.00 0.03 0.03 57 1011.2
20260502220002 70 349 1.0 6.0 0.00 0.03 0.03 57 1011.2
20260502215523 70 355 1.0 4.0 0.00 0.03 0.03 58 1011.3
20260502215002 70 353 1.0 4.0 0.00 0.03 0.03 57 1011.4
20260502214523 70 349 1.0 4.0 0.00 0.03 0.03 57 1011.4
20260502214002 70 344 1.0 5.0 0.00 0.03 0.03 57 1011.6
20260502213502 70 352 1.0 7.0 0.00 0.03 0.03 58 1011.6
20260502213002 69 16 1.0 7.0 0.00 0.03 0.03 60 1011.7
20260502212502 68 359 1.0 4.0 0.00 0.03 0.03 61 1011.7
20260502212023 68 360 1.0 7.0 0.00 0.03 0.03 61 1011.8
20260502211502 68 350 1.0 7.0 0.00 0.03 0.03 60 1011.9
20260502211002 67 343 1.0 5.0 0.00 0.03 0.03 61 1012.0
20260502210502 67 22 1.0 5.0 0.00 0.03 0.03 62 1012.0
20260502210002 67 29 1.0 4.0 0.00 0.03 0.03 62 1012.0
20260502205502 67 30 1.0 4.0 0.00 0.03 0.03 62 1012.1
20260502205002 66 1 1.0 7.0 0.00 0.03 0.03 63 1012.2
20260502204502 66 329 1.0 7.0 0.00 0.03 0.03 63 1012.3
20260502204002 66 0 0.0 0.0 0.00 0.03 0.03 64 1012.5
20260502203524 66 10 0.0 4.0 0.00 0.03 0.03 64 1012.5
20260502203003 66 345 1.0 5.0 0.00 0.03 0.03 64 1012.7
20260502202503 66 328 1.0 3.0 0.00 0.03 0.03 65 1012.8
20260502202002 65 319 1.0 4.0 0.00 0.03 0.03 66 1012.8
20260502201502 64 254 0.0 4.0 0.00 0.03 0.03 67 1012.8
20260502201002 63 232 1.0 3.0 0.00 0.03 0.03 69 1012.9
20260502200502 63 265 1.0 3.0 0.00 0.03 0.03 70 1012.9
20260502200002 62 325 0.0 3.0 0.00 0.03 0.03 70 1012.9
20260502195502 62 296 0.0 2.0 0.00 0.03 0.03 69 1012.9
20260502195002 62 307 1.0 4.0 0.00 0.03 0.03 71 1013.1
20260502194502 62 321 2.0 5.0 0.00 0.03 0.03 70 1013.2
20260502194002 62 311 1.0 8.0 0.00 0.03 0.03 71 1013.1
20260502193502 61 305 1.0 8.0 0.00 0.03 0.03 72 1013.1
20260502193023 60 62 1.0 3.0 0.00 0.03 0.03 73 1013.1
20260502192502 60 3 1.0 3.0 0.00 0.03 0.03 73 1013.2
20260502192002 60 338 1.0 4.0 0.00 0.03 0.03 74 1013.2
20260502191502 59 340 1.0 4.0 0.00 0.03 0.03 75 1013.3
20260502191024 59 344 1.0 4.0 0.00 0.03 0.03 76 1013.5
20260502190523 58 342 1.0 4.0 0.00 0.03 0.03 76 1013.6
20260502190002 58 356 1.0 3.0 0.00 0.03 0.03 77 1013.8
20260502185502 58 360 1.0 3.0 0.00 0.03 0.03 77 1013.8
20260502185003 57 301 1.0 3.0 0.00 0.03 0.03 77 1013.8
20260502184502 57 275 1.0 4.0 0.00 0.03 0.03 77 1013.9
20260502184003 57 291 1.0 4.0 0.00 0.03 0.03 78 1013.9
20260502183502 56 297 2.0 5.0 0.00 0.03 0.03 80 1013.8
20260502183003 56 303 2.0 5.0 0.00 0.03 0.03 79 1013.7
20260502182524 56 317 1.0 5.0 0.00 0.03 0.03 79 1013.5
20260502182002 56 321 1.0 5.0 0.00 0.03 0.03 80 1013.6
20260502181502 56 319 1.0 5.0 0.00 0.03 0.03 81 1013.6
20260502181024 55 325 1.0 6.0 0.00 0.03 0.03 81 1013.7
20260502180502 55 332 1.0 6.0 0.00 0.03 0.03 81 1013.7
20260502170502 54 316 1.0 4.0 0.00 0.03 0.03 84 1014.4
20260502164002 53 304 1.0 5.0 0.00 0.03 0.03 86 1014.1
20260502163502 53 321 1.0 3.0 0.00 0.03 0.03 87 1014.1
20260502163002 53 334 1.0 5.0 0.00 0.03 0.03 86 1014.1
20260502162503 53 327 1.0 5.0 0.00 0.03 0.03 87 1014.1
20260502162002 52 328 1.0 3.0 0.00 0.03 0.03 87 1014.1
20260502161502 52 337 0.0 3.0 0.00 0.03 0.03 87 1014.1
20260502161002 52 0 0.0 0.0 0.00 0.03 0.03 87 1014.1
20260502160502 52 0 0.0 0.0 0.00 0.03 0.03 87 1014.1
20260502152003 52 337 1.0 4.0 0.00 0.03 0.03 88 1014.2
20260502151523 52 340 0.0 4.0 0.00 0.03 0.03 88 1014.2
20260502151002 52 348 1.0 4.0 0.00 0.03 0.03 88 1014.2
20260502150502 51 340 1.0 4.0 0.00 0.03 0.03 88 1014.1
20260502130523 50 307 0.0 2.0 0.00 0.03 0.03 91 1014.0
20260502123502 49 0 0.0 0.0 0.00 0.03 0.03 91 1013.9
20260502123003 49 0 0.0 0.0 0.00 0.03 0.03 90 1013.9
20260502122502 49 0 0.0 0.0 0.00 0.03 0.03 90 1013.9
20260502122002 49 0 0.0 0.0 0.00 0.03 0.03 90 1014.0
20260502121502 49 0 0.0 0.0 0.00 0.03 0.03 90 1014.0
20260502121002 49 0 0.0 0.0 0.00 0.03 0.03 90 1013.9
20260502120503 50 0 0.0 0.0 0.00 0.03 0.03 90 1013.8
20260502115523 50 0 0.0 0.0 0.00 0.03 0.03 89 1014.0
20260502114502 50 315 0.0 3.0 0.00 0.03 0.03 89 1013.9
20260502114003 50 320 1.0 3.0 0.00 0.03 0.03 89 1013.9
20260502113502 50 330 0.0 2.0 0.00 0.03 0.03 89 1014.0
20260502113002 50 0 0.0 0.0 0.00 0.03 0.03 89 1013.9
20260502112502 50 0 0.0 0.0 0.00 0.03 0.03 89 1014.0
20260502112003 50 0 0.0 0.0 0.00 0.03 0.03 89 1014.0
20260502111503 50 0 0.0 0.0 0.00 0.03 0.03 89 1014.0
20260502111002 50 204 0.0 1.0 0.00 0.03 0.03 89 1014.2
20260502110502 50 246 1.0 2.0 0.00 0.03 0.03 89 1014.0
20260502110003 50 266 1.0 3.0 0.00 0.03 0.03 89 1014.0
20260502105502 50 6 0.0 3.0 0.00 0.03 0.03 89 1013.6
20260502105002 50 0 0.0 0.0 0.00 0.03 0.03 89 1013.7
20260502104503 50 0 0.0 0.0 0.00 0.03 0.03 89 1013.8
20260502104023 50 5 0.0 1.0 0.00 0.03 0.03 89 1013.9
20260502103502 51 43 0.0 2.0 0.00 0.03 0.03 89 1013.9
20260502103002 51 45 0.0 2.0 0.00 0.03 0.03 89 1014.0
20260502102503 51 356 0.0 1.0 0.00 0.03 0.03 89 1014.1
20260502102002 51 345 0.0 4.0 0.00 0.03 0.03 89 1014.1
20260502101503 51 342 1.0 4.0 0.00 0.03 0.03 89 1013.9
20260502101024 51 360 1.0 4.0 0.00 0.03 0.03 89 1013.9
20260502100502 51 62 0.0 2.0 0.00 0.03 0.03 89 1013.9
20260502091503 53 0 0.0 0.0 0.02 0.03 0.03 87 1014.7
20260502091002 53 0 0.0 0.0 0.03 0.03 0.03 87 1014.7
20260502090503 53 0 0.0 0.0 0.03 0.03 0.03 86 1015.0
20260502071502 56 334 0.0 3.0 0.00 0.00 0.00 74 1014.7
20260502071003 56 329 0.0 4.0 0.00 0.00 0.00 74 1014.8
20260502070524 56 329 1.0 4.0 0.00 0.00 0.00 74 1014.7
20260502070024 57 331 1.0 3.0 0.00 0.00 0.00 73 1014.7
20260502065502 57 335 1.0 4.0 0.00 0.00 0.00 73 1014.8
20260502065003 57 338 1.0 4.0 0.00 0.00 0.00 73 1014.7
20260502064503 57 336 0.0 2.0 0.00 0.00 0.00 73 1014.8
20260502064002 58 338 0.0 2.0 0.00 0.00 0.00 73 1014.8
20260502063502 58 334 0.0 1.0 0.00 0.00 0.00 73 1014.7
20260502063003 58 0 0.0 0.0 0.00 0.00 0.00 73 1014.8
20260502062502 58 0 0.0 0.0 0.00 0.00 0.00 72 1014.7
20260502062003 58 327 1.0 5.0 0.00 0.00 0.00 72 1014.7
20260502061003 59 337 1.0 4.0 0.00 0.00 0.00 72 1014.7
20260502060503 59 335 1.0 6.0 0.00 0.00 0.00 72 1014.6
20260502060002 59 336 2.0 6.0 0.00 0.00 0.00 72 1014.6
20260502055524 59 333 2.0 5.0 0.00 0.00 0.00 71 1014.6
20260502055002 60 325 2.0 4.0 0.00 0.00 0.00 71 1014.4
20260502054503 60 328 1.0 5.0 0.00 0.00 0.00 71 1014.4
20260502054003 60 333 1.0 5.0 0.00 0.00 0.00 70 1014.4
20260502053503 61 325 1.0 5.0 0.00 0.00 0.00 70 1014.3
20260502053003 61 320 1.0 4.0 0.00 0.00 0.00 70 1014.3
20260502052503 61 323 1.0 4.0 0.00 0.00 0.00 70 1014.3
20260502052002 61 324 1.0 4.0 0.00 0.00 0.00 69 1014.3
20260502051503 62 293 0.0 3.0 0.00 0.00 0.00 69 1014.2
20260502051003 62 299 1.0 3.0 0.00 0.00 0.00 69 1014.2
20260502050524 62 317 0.0 3.0 0.00 0.00 0.00 68 1014.2
20260502050003 62 326 1.0 3.0 0.00 0.00 0.00 68 1014.1
20260502045524 62 319 1.0 3.0 0.00 0.00 0.00 68 1014.1
20260502045003 62 312 1.0 4.0 0.00 0.00 0.00 67 1014.1
20260502044524 63 305 1.0 4.0 0.00 0.00 0.00 67 1013.9
20260502044003 63 296 1.0 4.0 0.00 0.00 0.00 67 1014.0
20260502043524 63 295 1.0 4.0 0.00 0.00 0.00 67 1014.0
20260502043003 63 294 1.0 6.0 0.00 0.00 0.00 66 1014.0
20260502042503 64 297 1.0 6.0 0.00 0.00 0.00 66 1014.0
20260502042003 64 296 1.0 5.0 0.00 0.00 0.00 66 1013.9
20260502041524 64 296 1.0 5.0 0.00 0.00 0.00 66 1013.8
20260502041003 64 300 1.0 5.0 0.00 0.00 0.00 65 1013.6
20260502040503 64 298 1.0 4.0 0.00 0.00 0.00 65 1013.5
20260502040002 64 305 1.0 4.0 0.00 0.00 0.00 64 1013.5
20260502035503 64 295 1.0 4.0 0.00 0.00 0.00 62 1013.4
20260502035024 65 269 1.0 4.0 0.00 0.00 0.00 61 1013.2
20260502034502 65 265 1.0 6.0 0.00 0.00 0.00 61 1013.1
20260502034003 65 270 1.0 6.0 0.00 0.00 0.00 60 1013.0
20260502033503 66 245 1.0 4.0 0.00 0.00 0.00 60 1012.9
20260502033003 66 248 1.0 4.0 0.00 0.00 0.00 61 1012.9
20260502032503 66 243 1.0 3.0 0.00 0.00 0.00 63 1012.8
20260502032003 66 222 0.0 2.0 0.00 0.00 0.00 65 1012.8
20260502031503 67 216 0.0 2.0 0.00 0.00 0.00 65 1012.8
20260502031003 67 194 1.0 2.0 0.00 0.00 0.00 64 1012.7
20260502030503 67 199 1.0 2.0 0.00 0.00 0.00 64 1012.6
20260502030003 67 208 1.0 2.0 0.00 0.00 0.00 63 1012.6
20260502025503 67 212 1.0 3.0 0.00 0.00 0.00 61 1012.5
20260502025003 67 217 1.0 3.0 0.00 0.00 0.00 60 1012.5
20260502024503 68 216 1.0 3.0 0.00 0.00 0.00 61 1012.4
20260502024003 68 214 1.0 2.0 0.00 0.00 0.00 61 1012.4
20260502023503 68 218 1.0 2.0 0.00 0.00 0.00 61 1012.5
20260502023024 68 215 1.0 2.0 0.00 0.00 0.00 61 1012.4
20260502022503 69 209 1.0 3.0 0.00 0.00 0.00 61 1012.4
20260502022003 69 197 1.0 2.0 0.00 0.00 0.00 60 1012.3
20260502021502 70 186 1.0 3.0 0.00 0.00 0.00 58 1012.2
20260502021003 71 184 1.0 3.0 0.00 0.00 0.00 58 1012.1
20260502020502 71 204 1.0 2.0 0.00 0.00 0.00 59 1012.1
20260502020003 71 220 1.0 3.0 0.00 0.00 0.00 58 1012.0
20260502015503 72 210 1.0 3.0 0.00 0.00 0.00 57 1012.0
20260502015024 72 194 1.0 3.0 0.00 0.00 0.00 56 1012.0
20260502014502 72 186 1.0 2.0 0.00 0.00 0.00 55 1012.0
20260502014003 72 207 1.0 2.0 0.00 0.00 0.00 56 1012.0
20260502013503 72 213 1.0 2.0 0.00 0.00 0.00 55 1012.1
20260502013003 72 208 1.0 3.0 0.00 0.00 0.00 55 1012.1
20260502012503 72 191 1.0 3.0 0.00 0.00 0.00 54 1012.1
20260502012003 73 188 1.0 3.0 0.00 0.00 0.00 54 1012.1
20260502011503 73 210 1.0 2.0 0.00 0.00 0.00 53 1012.1
20260502011024 73 204 1.0 2.0 0.00 0.00 0.00 54 1012.1
20260502010503 74 195 1.0 2.0 0.00 0.00 0.00 52 1012.0
20260502010003 74 194 1.0 2.0 0.00 0.00 0.00 52 1012.1
20260502005524 74 197 1.0 3.0 0.00 0.00 0.00 51 1012.1
20260502005003 74 227 1.0 3.0 0.00 0.00 0.00 51 1012.1
20260502004503 74 218 1.0 3.0 0.00 0.00 0.00 50 1012.1
20260502004003 74 201 1.0 3.0 0.00 0.00 0.00 50 1012.1
20260502003503 74 221 1.0 3.0 0.00 0.00 0.00 50 1012.2
20260502003003 74 219 1.0 3.0 0.00 0.00 0.00 50 1012.2
20260502002524 74 200 1.0 4.0 0.00 0.00 0.00 49 1012.2